Regional Weather Roundup
Issued by NWS

Home | Current Version | Previous Version | Graphics & Text | Print | Product List | Glossary On
Versions: 1 2 3 4 5 6 7 8 9 10 11 12 13 14 15 16 17 18 19 20 21 22 23 24 25 26 27 28 29 30 31 32 33 34 35 36 37 38 39 40 41 42 43 44 45 46 47 48 49 50
000
ASUS43 KDTX 290101
RWRMI
MICHIGAN HOURLY REGIONAL WEATHER ROUNDUP
NATIONAL WEATHER SERVICE DETROIT/PONTIAC MI
900 PM EDT THU MAY 28 2015

NOTE: "FAIR" INDICATES FEW OR NO CLOUDS BELOW 12,000 FEET WITH NO
SIGNIFICANT WEATHER AND/OR OBSTRUCTION TO VISIBILITY.

MIZ047>049-052>055-059>063-066>070-074>076-081>083-290200-
SOUTHEAST LOWER MICHIGAN

CITY           SKY/WX    TMP DP  RH WIND       PRES   REMARKS
ADRIAN         CLEAR     69  52  54 SE6       30.20S
ALMA           CLEAR     74  55  51 CALM      30.17S
ANN ARBOR      CLEAR     68  53  58 E3        30.20F
BAD AXE        PTCLDY    70  57  63 S8        30.20S
CARO           CLEAR     72  58  61 SE5       30.18S
DETROIT CITY   CLEAR     69  50  50 E6        30.20F
DETROIT        PTCLDY    73  51  46 E5        30.20F
FLINT          CLEAR     71  55  56 S9        30.18F
GROSSE ILE     CLEAR     64  61  88 CALM      30.19F
HILLSDALE      CLEAR     71  55  56 E7        30.19S
HOWELL         CLEAR     70  53  54 SE8       30.20S

CITY           SKY/WX    TMP DP  RH WIND       PRES   REMARKS
JACKSON        CLEAR     70  54  56 SE7       30.19F
LAMBERTVILLE   CLEAR     64  55  72 E3        30.20S
LANSING        CLEAR     73  55  53 SE9       30.18F
LAPEER         FAIR      68  54  60 SE5       30.20F
MASON          CLEAR     67  55  64 SE6       30.19S
MONROE         CLEAR     66  55  68 E6        30.19S
PONTIAC        PTCLDY    72  52  49 SE6       30.20S
PORT HOPE        N/A     69  58  67 S6        30.18S
PORT HURON     CLEAR     63  57  82 CALM      30.21F
TRI CITIES     CLEAR     76  56  49 S5        30.17F
MIDLAND        FAIR      76  56  49 CALM      30.16S
TROY           CLEAR     74  48  40 SE3       30.23S
SAGINAW HB     CLEAR     73  55  53 S7        30.17S
$$
MIZ043>046-050>051-056>058-064>065-071>073-077>080-290200-
SOUTHWEST LOWER MICHIGAN

CITY           SKY/WX    TMP DP  RH WIND       PRES   REMARKS
BATTLE CREEK   CLEAR     75  55  49 SE6       30.18S
BENTON HARBOR  PTCLDY    73  56  54 E6        30.13S
BIG RAPIDS     PTCLDY    74  56  53 CALM      30.15S
COLDWATER      CLEAR     71  54  55 E3        30.17S
FREMONT        FAIR      72  56  57 CALM      30.15S
HOLLAND        PTCLDY    74  58  57 CALM      30.14F
GRAND RAPIDS   MOCLDY    74  55  51 SE5       30.15F
IONIA          FAIR      72  56  56 SE7       30.15F
KALAMAZOO      CLEAR     74  56  53 VRB3      30.16S
LUDINGTON      CLEAR     72  58  61 S3        30.14F
MARSHALL       CLEAR     73  55  54 CALM      30.17S
MOUNT PLEASANT CLEAR     76  56  50 SE3       30.16S
MUSKEGON       MOCLDY    72  59  63 CALM      30.14F
SOUTH HAVEN    PTCLDY    75  55  49 SE5       30.13F
$$
MIZ016>042-290200-
NORTHERN LOWER MICHIGAN

CITY           SKY/WX    TMP DP  RH WIND       PRES   REMARKS
ALPENA         PTCLDY    61  53  75 E6        30.16F
BEAVER ISLAND  PTCLDY    58  54  86 CALM      30.14F
BELLAIRE       PTCLDY    67  60  77 CALM      30.13F
CADILLAC       CLEAR     71  59  64 S3        30.15F
CHARLEVOIX     PTCLDY    63  55  76 CALM      30.17S
FRANKFORT      CLEAR     72  52  49 SW5       30.13S
GAYLORD        CLOUDY    75  58  55 W5        30.16R
GRAYLING       CLEAR     72  58  61 CALM      30.16F
HARBOR SPRINGS PTCLDY    54  51  89 CALM      30.15F
HOUGHTON LAKE  PTCLDY    73  60  63 SE5       30.16F
MANISTEE       CLEAR     72  54  53 S5        30.14F
OSCODA         CLEAR     67  56  67 SE6       30.16F
PELLSTON       PTCLDY    68  57  68 CALM      30.15S
ROGERS CITY    MOCLDY    55  50  84 CALM      30.15F
TRAVERSE CITY  PTCLDY    61  54  77 CALM      30.12F
$$
MIZ007>008-015-290200-
EASTERN UPPER MICHIGAN

CITY           SKY/WX    TMP DP  RH WIND       PRES   REMARKS
KINROSS        MOCLDY    63  54  72 SE12      30.16S
MACKINAC ISLAN MOCLDY    46  43  88 E7G17     30.15S
NEWBERRY       MOCLDY    64  57  79 S6        30.12F
S. S. MARIE    MOCLDY    63  54  72 SE10      30.15F
$$
MIZ004>006-011>014-085-290200-
CENTRAL UPPER MICHIGAN

CITY           SKY/WX    TMP DP  RH WIND       PRES   REMARKS
MANISTIQUE     PTCLDY    53  50  92 SE7       30.11F FOG
ESCANABA       MOCLDY    55  50  82 E6        30.07S
MENOMINEE      CLEAR     72  57  60 S7        30.06S
SAWYER-GWINN   PTCLDY    68  57  68 S10       30.06F
$$
MIZ001>003-009>011-084-290200-
WESTERN UPPER MICHIGAN

CITY           SKY/WX    TMP DP  RH WIND       PRES   REMARKS
IRON MOUNTAIN  PTCLDY    69  60  73 SE9       30.03F
HOUGHTON       FOG       50  49  96 S9        29.99F VSB 1/2
COPPER HARBOR    N/A     62  59  90 SW6       29.96F
IRONWOOD       CLEAR     77  50  38 SW9       29.91F
$$

ABBREVIATIONS USED IN REMARKS
   TC - TEMPERATURE IN CELSIUS
  WCI - WIND CHILL INDEX
   HX - HEAT INDEX
  VSB - VISIBILITY



USA.gov is the U.S. government's official web portal to all federal, state and local government web resources and services.